Weather in Aleshkino

Russia / Ulyanovsk Oblast     53°29′18″N   48°08′14″E
temp.,
°C
wind,
m/s
gust,
m/s
humid.,
%
clouds,
%
prec.,
mm/h
press.,
hPa
HPBL,
m
11 may, tue
tue1101:00+14ene3107056 0.0 1018178
04:00+14ene31367100 0.0 1019272
07:00+15e41261100 0.0 1021326
10:00+19se575349 0.0 1023808
13:00+21se6104969 0.0 10241872
16:00+19ssw566499 0.4 1024453
19:00+16wsw4777100 0.6 1025242
22:00+13nw2284100 0.8 102643
12 may, wed
wed1201:00+13nnw018894 0.0 102612
04:00+13ene2284100 0.0 102519
07:00+14se4107691 0.0 1026400
10:00+15e41277100 0.0 1026551
13:00+15se41072100 0.1 1026395
16:00+17ese2769100 0.3 1026635
19:00+16ese377294 0.0 1025160
22:00+14ese387492 0.0 1025176
13 may, thu
thu1301:00+13e22725 0.0 102523
04:00+12e34685 0.0 102558
07:00+14e4116477 0.0 1024278
10:00+17se6116095 0.0 1024460
13:00+16e5107096 0.4 1024370
16:00+24se71142100 0.4 10221718
19:00+21sse6124892 0.0 1022446
22:00+16ese355992 0.0 102281
14 may, fri
fri1401:00+15ese311574 0.0 1022226
04:00+13se33625 0.0 102233
07:00+15se24656 0.0 1022117
10:00+21sse47488 0.0 1022414
13:00+26s69325 0.0 10221061
16:00+27sse693757 0.0 10221471
19:00+23sse411498 0.0 1021301
22:00+18sse345526 0.0 102154
15 may, sat
sat1501:00+16sse335744 0.0 102142
04:00+15se33565 0.0 102127
07:00+16se35620 0.0 1021135
10:00+23sse47415 0.0 1021439
13:00+27s710300 0.0 10201326
16:00+28s69320 0.0 10191874
19:00+24s35460 0.0 101891
22:00+19se335136 0.0 101824